Station Historical Data
Daily Summary for July 9, 2017 Units:  Metric    English   Both
« Previous Day
Next Day »
Daily Weekly Monthly Yearly Custom
  High: Low: Average:
Temperature: 25.8 °C 14.1 °C 21.1 °C
Dew Point: 16.6 °C 8.2 °C 13.1 °C
Humidity: 77% 45% 61%
Wind Speed: 37km/h 0km/h 8.7km/h
Wind Gust: 38.6km/h - -
Wind- - WSW
Pressure: 1015.8 hPa 1013.1 hPa -
Precipitation: 0 mm    
Historical Graphs
 
 
Tabular Data for July 9, 2017
Time Temperature Dew Point Pressure Wind Wind Speed Wind Gust Humidity Rainfall Rate (Hourly)
00:04 17.7 °C 9.8 °C 1013.1 hPa WNW 1.6 km/h 6.4 km/h 60% 0 mm
00:09 17.7 °C 9.8 °C 1013.1 hPa West 1.6 km/h 4.8 km/h 60% 0 mm
00:14 17.6 °C 9.7 °C 1013.1 hPa West 3.2 km/h 4.8 km/h 60% 0 mm
00:19 17.4 °C 9.8 °C 1013.4 hPa West 1.6 km/h 4.8 km/h 61% 0 mm
00:24 17.3 °C 9.7 °C 1013.4 hPa West 1.6 km/h 4.8 km/h 61% 0 mm
00:29 17.2 °C 9.6 °C 1013.4 hPa WNW 1.6 km/h 6.4 km/h 61% 0 mm
00:34 17.2 °C 9.6 °C 1013.4 hPa WNW 3.2 km/h 8 km/h 61% 0 mm
00:39 17.2 °C 9.6 °C 1013.4 hPa NW 3.2 km/h 6.4 km/h 61% 0 mm
00:44 17.2 °C 9.6 °C 1013.4 hPa West 1.6 km/h 6.4 km/h 61% 0 mm
00:49 17.2 °C 9.6 °C 1013.8 hPa WNW 3.2 km/h 6.4 km/h 61% 0 mm
00:54 17.2 °C 9.8 °C 1013.8 hPa WSW 1.6 km/h 4.8 km/h 62% 0 mm
00:59 17.1 °C 9.8 °C 1013.4 hPa West 1.6 km/h 6.4 km/h 62% 0 mm
01:05 17.1 °C 9.7 °C 1013.8 hPa West 3.2 km/h 6.4 km/h 62% 0 mm
01:10 16.8 °C 9.5 °C 1013.8 hPa West 3.2 km/h 8 km/h 62% 0 mm
01:15 16.8 °C 9.4 °C 1013.8 hPa West 6.4 km/h 6.4 km/h 62% 0 mm
01:20 16.7 °C 9.4 °C 1013.8 hPa West 6.4 km/h 6.4 km/h 62% 0 mm
01:25 16.7 °C 9.3 °C 1013.4 hPa West 3.2 km/h 9.7 km/h 62% 0 mm
01:30 16.6 °C 9.3 °C 1013.4 hPa West 4.8 km/h 9.7 km/h 62% 0 mm
01:35 16.5 °C 9.2 °C 1013.4 hPa West 3.2 km/h 8 km/h 62% 0 mm
01:40 16.4 °C 9.1 °C 1013.4 hPa West 3.2 km/h 8 km/h 62% 0 mm
01:45 16.3 °C 9.1 °C 1013.8 hPa WNW 4.8 km/h 11.3 km/h 62% 0 mm
01:50 16.4 °C 8.8 °C 1013.8 hPa West 4.8 km/h 11.3 km/h 61% 0 mm
01:55 16.4 °C 8.8 °C 1013.8 hPa West 4.8 km/h 11.3 km/h 61% 0 mm
02:00 16.3 °C 8.8 °C 1013.8 hPa West 4.8 km/h 8 km/h 61% 0 mm
02:05 16.2 °C 8.7 °C 1013.8 hPa West 3.2 km/h 8 km/h 61% 0 mm
02:10 16.1 °C 8.6 °C 1013.8 hPa West 1.6 km/h 4.8 km/h 61% 0 mm
02:15 16.1 °C 8.6 °C 1013.8 hPa West 1.6 km/h 6.4 km/h 61% 0 mm
02:20 16 °C 8.5 °C 1013.8 hPa West 3.2 km/h 6.4 km/h 61% 0 mm
02:25 16 °C 8.5 °C 1013.8 hPa West 1.6 km/h 6.4 km/h 61% 0 mm
02:30 16 °C 8.2 °C 1013.8 hPa Calm   4.8 km/h 60% 0 mm
02:35 15.9 °C 8.4 °C 1013.8 hPa Calm     61% 0 mm
02:40 15.8 °C 8.3 °C 1013.8 hPa Calm     61% 0 mm
02:45 15.8 °C 8.3 °C 1013.8 hPa Calm     61% 0 mm
02:50 15.6 °C 8.3 °C 1013.8 hPa Calm     62% 0 mm
02:55 15.7 °C 8.4 °C 1013.8 hPa West 3.2 km/h 4.8 km/h 62% 0 mm
03:00 15.9 °C 8.4 °C 1013.8 hPa West 1.6 km/h 6.4 km/h 61% 0 mm
03:05 15.9 °C 8.4 °C 1013.8 hPa Calm   4.8 km/h 61% 0 mm
03:10 15.9 °C 8.4 °C 1013.8 hPa West 4.8 km/h 6.4 km/h 61% 0 mm
03:15 16 °C 8.5 °C 1013.8 hPa West 4.8 km/h 8 km/h 61% 0 mm
03:20 16.2 °C 8.6 °C 1013.8 hPa West 4.8 km/h 9.7 km/h 61% 0 mm
03:25 16.3 °C 8.7 °C 1013.8 hPa West 4.8 km/h 9.7 km/h 61% 0 mm
03:30 16.3 °C 8.5 °C 1013.8 hPa West 4.8 km/h 8 km/h 60% 0 mm
03:35 16.2 °C 8.4 °C 1013.8 hPa West 3.2 km/h 8 km/h 60% 0 mm
03:40 16.3 °C 8.5 °C 1013.8 hPa West 3.2 km/h 9.7 km/h 60% 0 mm
03:45 16.2 °C 8.4 °C 1013.8 hPa West 3.2 km/h 8 km/h 60% 0 mm
03:50 16.2 °C 8.4 °C 1013.8 hPa WNW 1.6 km/h 6.4 km/h 60% 0 mm
03:55 16.2 °C 8.4 °C 1013.8 hPa West 4.8 km/h 4.8 km/h 60% 0 mm
04:00 16 °C 8.2 °C 1013.8 hPa Calm   4.8 km/h 60% 0 mm
04:05 15.8 °C 8.3 °C 1013.8 hPa West 1.6 km/h 4.8 km/h 61% 0 mm
04:10 15.9 °C 8.4 °C 1013.8 hPa West 1.6 km/h 4.8 km/h 61% 0 mm
04:15 15.9 °C 8.4 °C 1013.8 hPa Calm   4.8 km/h 61% 0 mm
04:20 15.7 °C 8.4 °C 1013.8 hPa Calm   4.8 km/h 62% 0 mm
04:25 15.3 °C 8.3 °C 1013.8 hPa Calm     63% 0 mm
04:30 15 °C 8.2 °C 1013.8 hPa Calm     64% 0 mm
04:35 14.8 °C 8.3 °C 1013.8 hPa Calm     65% 0 mm
04:40 14.7 °C 8.2 °C 1013.8 hPa Calm     65% 0 mm
04:45 14.6 °C 8.3 °C 1013.8 hPa Calm     66% 0 mm
04:50 14.5 °C 8.4 °C 1013.8 hPa Calm     67% 0 mm
04:55 14.3 °C 8.3 °C 1013.8 hPa Calm     67% 0 mm
05:00 14.2 °C 8.3 °C 1013.8 hPa Calm     68% 0 mm
05:05 14.2 °C 8.6 °C 1014.1 hPa Calm     69% 0 mm
05:10 14.3 °C 9.2 °C 1013.8 hPa Calm     71% 0 mm
05:15 14.4 °C 9.6 °C 1013.8 hPa Calm     73% 0 mm
05:20 14.3 °C 9.9 °C 1014.1 hPa Calm     75% 0 mm
05:25 14.2 °C 10 °C 1014.1 hPa Calm     76% 0 mm
05:30 14.1 °C 10.1 °C 1014.1 hPa Calm     77% 0 mm
05:35 14.1 °C 10.1 °C 1014.1 hPa Calm     77% 0 mm
05:40 14.1 °C 10.1 °C 1014.1 hPa Calm     77% 0 mm
05:45 14.2 °C 10.2 °C 1014.1 hPa Calm     77% 0 mm
05:49 14.3 °C 10.3 °C 1014.1 hPa Calm     77% 0 mm
05:55 14.4 °C 10.4 °C 1014.1 hPa Calm     77% 0 mm
06:00 14.4 °C 10.4 °C 1014.1 hPa Calm     77% 0 mm
06:05 14.5 °C 10.5 °C 1014.1 hPa Calm     77% 0 mm
06:10 14.6 °C 10.6 °C 1014.1 hPa Calm     77% 0 mm
06:15 14.6 °C 10.6 °C 1014.1 hPa Calm     77% 0 mm
06:20 14.7 °C 10.7 °C 1014.1 hPa Calm     77% 0 mm
06:24 14.8 °C 10.8 °C 1014.4 hPa Calm     77% 0 mm
06:30 15.1 °C 11.1 °C 1014.4 hPa Calm     77% 0 mm
06:35 15.4 °C 11.4 °C 1014.4 hPa Calm     77% 0 mm
06:40 15.9 °C 11.8 °C 1014.4 hPa Calm   6.4 km/h 77% 0 mm
06:45 16.2 °C 12 °C 1014.4 hPa Calm   11.3 km/h 76% 0 mm
06:50 16.6 °C 12.3 °C 1014.8 hPa SSW 1.6 km/h 6.4 km/h 76% 0 mm
06:55 17.1 °C 12.6 °C 1014.8 hPa SSW 3.2 km/h 8 km/h 75% 0 mm
07:00 17.6 °C 13.1 °C 1014.8 hPa SSW 3.2 km/h 9.7 km/h 75% 0 mm
07:05 17.8 °C 13.3 °C 1014.8 hPa SSW 3.2 km/h 11.3 km/h 75% 0 mm
07:10 17.9 °C 13.4 °C 1014.8 hPa SW 4.8 km/h 11.3 km/h 75% 0 mm
07:20 18.2 °C 13.9 °C 1014.8 hPa SSW 4.8 km/h 11.3 km/h 76% 0 mm
07:25 18.4 °C 13.9 °C 1014.8 hPa SSW 4.8 km/h 11.3 km/h 75% 0 mm
07:30 18.7 °C 14.2 °C 1014.8 hPa SSW 6.4 km/h 12.9 km/h 75% 0 mm
07:35 18.9 °C 14.4 °C 1014.8 hPa SSW 8 km/h 16.1 km/h 75% 0 mm
07:39 19.1 °C 14.6 °C 1014.8 hPa SW 11.3 km/h 14.5 km/h 75% 0 mm
07:44 19.3 °C 14.5 °C 1014.8 hPa SSW 8 km/h 16.1 km/h 74% 0 mm
07:49 19.4 °C 14.6 °C 1015.1 hPa SW 9.7 km/h 14.5 km/h 74% 0 mm
07:55 19.6 °C 14.8 °C 1015.1 hPa South 6.4 km/h 12.9 km/h 74% 0 mm
08:00 19.8 °C 14.8 °C 1015.1 hPa SW 9.7 km/h 20.9 km/h 73% 0 mm
08:05 19.9 °C 15.2 °C 1015.1 hPa WSW 12.9 km/h 20.9 km/h 74% 0 mm
08:10 20.2 °C 15.2 °C 1015.1 hPa SSW 4.8 km/h 16.1 km/h 73% 0 mm
08:15 20.3 °C 15.3 °C 1015.5 hPa SW 6.4 km/h 14.5 km/h 73% 0 mm
08:19 20.5 °C 15.3 °C 1015.1 hPa SSW 6.4 km/h 14.5 km/h 72% 0 mm
08:25 20.7 °C 15.5 °C 1015.5 hPa SSW 6.4 km/h 17.7 km/h 72% 0 mm
08:30 20.9 °C 15.7 °C 1015.5 hPa WSW 4.8 km/h 14.5 km/h 72% 0 mm
08:35 21.2 °C 15.9 °C 1015.5 hPa SW 12.9 km/h 19.3 km/h 72% 0 mm
08:40 21.5 °C 16 °C 1015.5 hPa SSE 14.5 km/h 17.7 km/h 71% 0 mm
08:45 21.7 °C 15.8 °C 1015.5 hPa SSW 9.7 km/h 19.3 km/h 69% 0 mm
08:49 22.1 °C 15.4 °C 1015.5 hPa SSW 8 km/h 19.3 km/h 66% 0 mm
08:55 22.2 °C 15.1 °C 1015.5 hPa WSW 4.8 km/h 12.9 km/h 64% 0 mm
09:00 22.6 °C 15.2 °C 1015.5 hPa WSW 6.4 km/h 16.1 km/h 63% 0 mm
09:05 22.4 °C 15.2 °C 1015.5 hPa SSW 3.2 km/h 14.5 km/h 64% 0 mm
09:10 22.4 °C 14.8 °C 1015.5 hPa West 11.3 km/h 14.5 km/h 62% 0 mm
09:15 22.7 °C 15.3 °C 1015.5 hPa SW 6.4 km/h 12.9 km/h 63% 0 mm
09:20 22.8 °C 15.4 °C 1015.5 hPa SW 6.4 km/h 19.3 km/h 63% 0 mm
09:25 22.7 °C 15.3 °C 1015.5 hPa SW 6.4 km/h 19.3 km/h 63% 0 mm
09:30 22.6 °C 14.7 °C 1015.5 hPa WSW 8 km/h 16.1 km/h 61% 0 mm
09:35 22.7 °C 15.8 °C 1015.5 hPa WSW 8 km/h 16.1 km/h 65% 0 mm
09:40 22.8 °C 15.6 °C 1015.5 hPa WSW 8 km/h 17.7 km/h 64% 0 mm
09:45 22.9 °C 15.9 °C 1015.5 hPa WSW 3.2 km/h 12.9 km/h 65% 0 mm
09:49 23.3 °C 16.1 °C 1015.5 hPa West 9.7 km/h 14.5 km/h 64% 0 mm
09:54 23.3 °C 15.8 °C 1015.5 hPa WSW 11.3 km/h 20.9 km/h 63% 0 mm
09:59 23.3 °C 15.7 °C 1015.5 hPa WSW 11.3 km/h 20.9 km/h 62% 0 mm
10:05 23.6 °C 15.6 °C 1015.5 hPa SW 9.7 km/h 17.7 km/h 61% 0 mm
10:09 23.5 °C 15.6 °C 1015.8 hPa West 11.3 km/h 20.9 km/h 61% 0 mm
10:14 23.5 °C 15.6 °C 1015.8 hPa SW 9.7 km/h 20.9 km/h 61% 0 mm
10:20 23.7 °C 15.8 °C 1015.8 hPa SW 9.7 km/h 20.9 km/h 61% 0 mm
10:25 23.9 °C 15.9 °C 1015.8 hPa SW 9.7 km/h 20.9 km/h 61% 0 mm
10:30 24 °C 15.5 °C 1015.8 hPa WSW 9.7 km/h 19.3 km/h 59% 0 mm
10:35 23.9 °C 15.1 °C 1015.8 hPa WSW 9.7 km/h 19.3 km/h 58% 0 mm
10:40 24.5 °C 15.9 °C 1015.8 hPa WSW 9.7 km/h 19.3 km/h 59% 0 mm
10:45 24.3 °C 15.8 °C 1015.8 hPa SSW 14.5 km/h 24.1 km/h 59% 0 mm
10:49 24.1 °C 15.8 °C 1015.8 hPa WSW 11.3 km/h 24.1 km/h 60% 0 mm
10:54 23.9 °C 14.8 °C 1015.8 hPa WNW 19.3 km/h 20.9 km/h 57% 0 mm
10:59 24 °C 15.8 °C 1015.8 hPa SSE 6.4 km/h 17.7 km/h 60% 0 mm
11:04 24.1 °C 15.6 °C 1015.8 hPa SW 16.1 km/h 20.9 km/h 59% 0 mm
11:09 23.8 °C 15.1 °C 1015.8 hPa SW 6.4 km/h 25.7 km/h 58% 0 mm
11:14 23.7 °C 14.7 °C 1015.8 hPa WSW 17.7 km/h 22.5 km/h 57% 0 mm
11:19 23.8 °C 15.3 °C 1015.8 hPa WSW 11.3 km/h 22.5 km/h 59% 0 mm
11:24 24.2 °C 15.2 °C 1015.8 hPa WSW 11.3 km/h 25.7 km/h 57% 0 mm
11:30 24.6 °C 15.2 °C 1015.8 hPa WSW 11.3 km/h 25.7 km/h 56% 0 mm
11:35 24.6 °C 15.5 °C 1015.8 hPa SW 11.3 km/h 25.7 km/h 57% 0 mm
11:40 24.9 °C 15 °C 1015.8 hPa WSW 14.5 km/h 24.1 km/h 54% 0 mm
11:45 25.3 °C 15.6 °C 1015.8 hPa SW 12.9 km/h 24.1 km/h 55% 0 mm
11:49 24.9 °C 14.4 °C 1015.8 hPa WSW 12.9 km/h 29 km/h 52% 0 mm
11:54 24.7 °C 14.2 °C 1015.8 hPa SW 11.3 km/h 30.6 km/h 52% 0 mm
12:00 24.8 °C 14.6 °C 1015.8 hPa SW 12.9 km/h 30.6 km/h 53% 0 mm
12:04 25.2 °C 15.6 °C 1015.8 hPa SW 11.3 km/h 20.9 km/h 55% 0 mm
12:09 24.9 °C 14.7 °C 1015.8 hPa SW 19.3 km/h 27.4 km/h 53% 0 mm
12:14 24.8 °C 15.4 °C 1015.8 hPa South 20.9 km/h 27.4 km/h 56% 0 mm
12:19 24.8 °C 16.6 °C 1015.8 hPa WSW 14.5 km/h 29 km/h 60% 0 mm
12:24 24.6 °C 14.4 °C 1015.8 hPa WSW 14.5 km/h 30.6 km/h 53% 0 mm
12:30 24.8 °C 16.2 °C 1015.8 hPa WSW 14.5 km/h 30.6 km/h 59% 0 mm
12:35 25 °C 15.9 °C 1015.8 hPa West 14.5 km/h 27.4 km/h 57% 0 mm
12:40 24.9 °C 15.8 °C 1015.8 hPa South 16.1 km/h 29 km/h 57% 0 mm
12:45 24.9 °C 15.3 °C 1015.8 hPa SW 19.3 km/h 24.1 km/h 55% 0 mm
12:49 25.4 °C 14.3 °C 1015.8 hPa SW 12.9 km/h 32.2 km/h 50% 0 mm
12:54 25.1 °C 15.1 °C 1015.8 hPa SW 14.5 km/h 32.2 km/h 54% 0 mm
12:59 25.1 °C 14.8 °C 1015.8 hPa WSW 16.1 km/h 27.4 km/h 53% 0 mm
13:04 25.1 °C 14.8 °C 1015.8 hPa WSW 14.5 km/h 27.4 km/h 53% 0 mm
13:09 24.9 °C 14.7 °C 1015.8 hPa WSW 37 km/h 37 km/h 53% 0 mm
13:14 25.2 °C 14.3 °C 1015.8 hPa SW 14.5 km/h 37 km/h 51% 0 mm
13:20 25.4 °C 14.8 °C 1015.8 hPa West 6.4 km/h 22.5 km/h 52% 0 mm
13:24 25.1 °C 14.3 °C 1015.8 hPa WSW 12.9 km/h 27.4 km/h 51% 0 mm
13:30 25.1 °C 13.9 °C 1015.8 hPa West 17.7 km/h 24.1 km/h 50% 0 mm
13:34 25.2 °C 15.5 °C 1015.8 hPa SW 19.3 km/h 33.8 km/h 55% 0 mm
13:39 25.4 °C 15.1 °C 1015.5 hPa South 25.7 km/h 33.8 km/h 53% 0 mm
13:44 25.1 °C 14.6 °C 1015.5 hPa West 14.5 km/h 35.4 km/h 52% 0 mm
13:50 25.2 °C 14.9 °C 1015.8 hPa SW 8 km/h 27.4 km/h 53% 0 mm
13:54 25.2 °C 14.3 °C 1015.5 hPa WSW 14.5 km/h 27.4 km/h 51% 0 mm
14:00 25.1 °C 14.6 °C 1015.5 hPa WSW 16.1 km/h 30.6 km/h 52% 0 mm
14:05 25 °C 14.8 °C 1015.5 hPa SW 17.7 km/h 33.8 km/h 53% 0 mm
14:10 25.1 °C 14.8 °C 1015.5 hPa SW 16.1 km/h 35.4 km/h 53% 0 mm
14:15 25.3 °C 14.8 °C 1015.5 hPa WSW 14.5 km/h 35.4 km/h 52% 0 mm
14:19 25.7 °C 14.5 °C 1015.5 hPa WSW 14.5 km/h 38.6 km/h 50% 0 mm
14:24 25.3 °C 14.4 °C 1015.5 hPa WSW 16.1 km/h 32.2 km/h 51% 0 mm
14:29 25.1 °C 13.3 °C 1015.5 hPa WSW 12.9 km/h 38.6 km/h 48% 0 mm
14:34 25.2 °C 14.7 °C 1015.5 hPa SW 22.5 km/h 29 km/h 52% 0 mm
14:39 24.8 °C 14.3 °C 1015.5 hPa WSW 17.7 km/h 38.6 km/h 52% 0 mm
14:44 24.8 °C 14.3 °C 1015.5 hPa West 17.7 km/h 38.6 km/h 52% 0 mm
14:49 24.9 °C 14.7 °C 1015.5 hPa WSW 17.7 km/h 38.6 km/h 53% 0 mm
14:55 25.3 °C 15 °C 1015.5 hPa WSW 16.1 km/h 32.2 km/h 53% 0 mm
14:59 25.3 °C 14.7 °C 1015.5 hPa WSW 16.1 km/h 32.2 km/h 52% 0 mm
15:04 25.3 °C 14.7 °C 1015.5 hPa WSW 16.1 km/h 32.2 km/h 52% 0 mm
15:10 25.1 °C 14.6 °C 1015.5 hPa WSW 12.9 km/h 32.2 km/h 52% 0 mm
15:14 25.3 °C 14.2 °C 1015.5 hPa WSW 17.7 km/h 32.2 km/h 50% 0 mm
15:19 25.3 °C 14.4 °C 1015.5 hPa WSW 12.9 km/h 32.2 km/h 51% 0 mm
15:24 25.2 °C 14.4 °C 1015.5 hPa SSW 12.9 km/h 27.4 km/h 51% 0 mm
15:29 25.2 °C 14.4 °C 1015.1 hPa West 6.4 km/h 27.4 km/h 51% 0 mm
15:34 25.2 °C 14.1 °C 1015.1 hPa SW 14.5 km/h 29 km/h 50% 0 mm
15:39 25.3 °C 13.8 °C 1015.1 hPa SSW 30.6 km/h 30.6 km/h 49% 0 mm
15:44 25.3 °C 14.7 °C 1015.1 hPa WSW 14.5 km/h 30.6 km/h 52% 0 mm
15:49 25.8 °C 14.3 °C 1015.1 hPa WSW 12.9 km/h 30.6 km/h 49% 0 mm
15:54 25.4 °C 12.6 °C 1015.1 hPa WSW 14.5 km/h 30.6 km/h 45% 0 mm
15:59 25.4 °C 13.6 °C 1015.1 hPa WSW 16.1 km/h 30.6 km/h 48% 0 mm
16:05 25.2 °C 13.7 °C 1015.1 hPa WSW 16.1 km/h 29 km/h 49% 0 mm
16:10 25.2 °C 14 °C 1015.1 hPa SW 16.1 km/h 29 km/h 50% 0 mm
16:14 25.1 °C 13.3 °C 1015.1 hPa WSW 16.1 km/h 30.6 km/h 48% 0 mm
16:19 24.9 °C 13.2 °C 1015.1 hPa SW 19.3 km/h 33.8 km/h 48% 0 mm
16:24 24.8 °C 13.7 °C 1015.1 hPa WSW 8 km/h 33.8 km/h 50% 0 mm
16:29 25.3 °C 13.8 °C 1015.1 hPa SW 22.5 km/h 33.8 km/h 49% 0 mm
16:34 25.5 °C 14.3 °C 1015.1 hPa SW 29 km/h 29 km/h 50% 0 mm
16:39 25.2 °C 13.4 °C 1014.8 hPa WSW 20.9 km/h 29 km/h 48% 0 mm
16:44 24.9 °C 13.2 °C 1015.1 hPa NW 12.9 km/h 30.6 km/h 48% 0 mm
16:49 24.8 °C 13.4 °C 1014.8 hPa WSW 16.1 km/h 30.6 km/h 49% 0 mm
16:54 24.9 °C 13.5 °C 1014.8 hPa WSW 16.1 km/h 30.6 km/h 49% 0 mm
16:59 25.2 °C 13.4 °C 1014.8 hPa SW 19.3 km/h 20.9 km/h 48% 0 mm
17:04 25.1 °C 13.9 °C 1014.8 hPa WSW 12.9 km/h 24.1 km/h 50% 0 mm
17:10 24.9 °C 13.8 °C 1014.8 hPa WSW 14.5 km/h 25.7 km/h 50% 0 mm
17:14 24.9 °C 13.4 °C 1014.8 hPa WSW 16.1 km/h 33.8 km/h 49% 0 mm
17:19 24.7 °C 14.2 °C 1014.8 hPa WSW 14.5 km/h 33.8 km/h 52% 0 mm
17:24 24.9 °C 13.8 °C 1014.8 hPa WSW 12.9 km/h 29 km/h 50% 0 mm
17:29 24.7 °C 13.6 °C 1014.8 hPa WSW 14.5 km/h 29 km/h 50% 0 mm
17:35 24.7 °C 13.2 °C 1014.8 hPa WSW 16.1 km/h 32.2 km/h 49% 0 mm
17:40 24.4 °C 13.3 °C 1014.8 hPa WSW 16.1 km/h 32.2 km/h 50% 0 mm
17:45 24.3 °C 13.8 °C 1014.8 hPa WSW 16.1 km/h 30.6 km/h 52% 0 mm
17:49 24.5 °C 13.7 °C 1014.8 hPa SW 24.1 km/h 30.6 km/h 51% 0 mm
17:54 24.4 °C 13.6 °C 1014.8 hPa WSW 17.7 km/h 35.4 km/h 51% 0 mm
17:59 24.3 °C 13.8 °C 1014.8 hPa West 11.3 km/h 29 km/h 52% 0 mm
18:04 24.5 °C 13.7 °C 1014.8 hPa WSW 12.9 km/h 25.7 km/h 51% 0 mm
18:09 24.4 °C 14.2 °C 1014.4 hPa SW 8 km/h 29 km/h 53% 0 mm
18:14 24.4 °C 13.7 °C 1014.8 hPa SSW 12.9 km/h 25.7 km/h 51% 0 mm
18:19 24.2 °C 13.4 °C 1014.8 hPa WSW 12.9 km/h 30.6 km/h 51% 0 mm
18:24 24.1 °C 13.6 °C 1014.4 hPa WSW 12.9 km/h 30.6 km/h 52% 0 mm
18:29 24 °C 13.8 °C 1014.8 hPa WSW 11.3 km/h 30.6 km/h 53% 0 mm
18:35 23.9 °C 13.5 °C 1014.8 hPa SW 22.5 km/h 24.1 km/h 52% 0 mm
18:39 23.8 °C 13.7 °C 1014.8 hPa SW 14.5 km/h 27.4 km/h 53% 0 mm
18:45 23.7 °C 13 °C 1014.4 hPa West 17.7 km/h 25.7 km/h 51% 0 mm
18:49 23.7 °C 12.9 °C 1014.4 hPa WSW 14.5 km/h 29 km/h 51% 0 mm
18:54 23.7 °C 13.2 °C 1014.4 hPa WSW 14.5 km/h 29 km/h 52% 0 mm
18:59 23.7 °C 13.3 °C 1014.4 hPa SSW 11.3 km/h 22.5 km/h 52% 0 mm
19:04 23.7 °C 13 °C 1014.4 hPa WSW 16.1 km/h 25.7 km/h 51% 0 mm
19:09 23.8 °C 13.3 °C 1014.4 hPa SSW 11.3 km/h 20.9 km/h 52% 0 mm
19:14 23.6 °C 12.6 °C 1014.4 hPa SW 12.9 km/h 32.2 km/h 50% 0 mm
19:19 23.6 °C 12.8 °C 1014.4 hPa SW 12.9 km/h 32.2 km/h 51% 0 mm
19:24 23.6 °C 12.8 °C 1014.4 hPa WSW 11.3 km/h 25.7 km/h 51% 0 mm
19:29 23.6 °C 12.8 °C 1014.4 hPa SW 12.9 km/h 24.1 km/h 51% 0 mm
19:34 23.4 °C 12.9 °C 1014.4 hPa SW 12.9 km/h 25.7 km/h 52% 0 mm
19:39 23.3 °C 13.2 °C 1014.4 hPa SW 8 km/h 25.7 km/h 53% 0 mm
19:44 23.2 °C 13.3 °C 1014.4 hPa WSW 11.3 km/h 25.7 km/h 54% 0 mm
19:49 23 °C 13.4 °C 1014.4 hPa WSW 9.7 km/h 20.9 km/h 55% 0 mm
19:54 22.9 °C 13.7 °C 1014.4 hPa West 11.3 km/h 19.3 km/h 56% 0 mm
19:59 22.9 °C 13.9 °C 1014.1 hPa WSW 4.8 km/h 27.4 km/h 57% 0 mm
20:04 22.8 °C 14.1 °C 1014.1 hPa SW 8 km/h 19.3 km/h 58% 0 mm
20:09 22.7 °C 14.1 °C 1014.1 hPa SW 12.9 km/h 16.1 km/h 58% 0 mm
20:14 22.6 °C 14.4 °C 1014.1 hPa SW 8 km/h 17.7 km/h 60% 0 mm
20:19 22.4 °C 14.3 °C 1014.1 hPa SW 9.7 km/h 17.7 km/h 60% 0 mm
20:24 22.4 °C 14.3 °C 1014.1 hPa SW 9.7 km/h 17.7 km/h 60% 0 mm
20:29 22.4 °C 14.5 °C 1014.1 hPa SW 9.7 km/h 17.7 km/h 61% 0 mm
20:35 22.3 °C 14.7 °C 1014.1 hPa SSE 3.2 km/h 17.7 km/h 62% 0 mm
20:39 22.3 °C 14.7 °C 1014.1 hPa West 8 km/h 17.7 km/h 62% 0 mm
20:45 22.2 °C 14.8 °C 1014.1 hPa SW 6.4 km/h 14.5 km/h 63% 0 mm
20:49 22.1 °C 15 °C 1014.1 hPa WSW 8 km/h 17.7 km/h 64% 0 mm
20:54 21.9 °C 14.8 °C 1014.1 hPa SW 14.5 km/h 16.1 km/h 64% 0 mm
20:59 21.9 °C 15.1 °C 1014.1 hPa WSW 9.7 km/h 19.3 km/h 65% 0 mm
21:04 21.9 °C 15 °C 1014.1 hPa SW 8 km/h 19.3 km/h 65% 0 mm
21:09 21.8 °C 15.2 °C 1014.1 hPa WSW 9.7 km/h 14.5 km/h 66% 0 mm
21:14 21.7 °C 15.3 °C 1014.1 hPa SW 4.8 km/h 11.3 km/h 67% 0 mm
21:19 21.6 °C 15.2 °C 1014.1 hPa SW 6.4 km/h 12.9 km/h 67% 0 mm
21:24 21.6 °C 15.2 °C 1014.1 hPa SW 6.4 km/h 17.7 km/h 67% 0 mm
21:29 21.7 °C 15.3 °C 1014.4 hPa SW 9.7 km/h 11.3 km/h 67% 0 mm
21:34 21.7 °C 15.3 °C 1014.4 hPa SSW 9.7 km/h 16.1 km/h 67% 0 mm
21:39 21.7 °C 15.3 °C 1014.4 hPa WSW 4.8 km/h 14.5 km/h 67% 0 mm
21:44 21.7 °C 15.3 °C 1014.4 hPa WSW 4.8 km/h 12.9 km/h 67% 0 mm
21:49 21.7 °C 15.3 °C 1014.4 hPa WSW 6.4 km/h 16.1 km/h 67% 0 mm
21:54 21.7 °C 15.3 °C 1014.4 hPa SW 8 km/h 16.1 km/h 67% 0 mm
21:59 21.7 °C 15.3 °C 1014.4 hPa SW 8 km/h 16.1 km/h 67% 0 mm
22:04 21.7 °C 15.3 °C 1014.4 hPa SW 9.7 km/h 16.1 km/h 67% 0 mm
22:09 21.6 °C 15.2 °C 1014.4 hPa SW 6.4 km/h 12.9 km/h 67% 0 mm
22:14 21.6 °C 15.2 °C 1014.4 hPa WSW 6.4 km/h 9.7 km/h 67% 0 mm
22:19 21.5 °C 15.1 °C 1014.4 hPa WSW 4.8 km/h 9.7 km/h 67% 0 mm
22:24 21.4 °C 15.3 °C 1014.4 hPa WSW 6.4 km/h 14.5 km/h 68% 0 mm
22:29 21.5 °C 15.1 °C 1014.4 hPa South 4.8 km/h 14.5 km/h 67% 0 mm
22:35 21.6 °C 15.2 °C 1014.4 hPa SW 8 km/h 14.5 km/h 67% 0 mm
22:39 21.5 °C 15.1 °C 1014.4 hPa SW 4.8 km/h 12.9 km/h 67% 0 mm
22:44 21.4 °C 15.1 °C 1014.4 hPa West 4.8 km/h 14.5 km/h 67% 0 mm
22:49 21.4 °C 15 °C 1014.4 hPa WSW 4.8 km/h 14.5 km/h 67% 0 mm
22:54 21.3 °C 15.2 °C 1014.4 hPa WSW 4.8 km/h 11.3 km/h 68% 0 mm
22:59 21.3 °C 15.2 °C 1014.8 hPa WSW 4.8 km/h 11.3 km/h 68% 0 mm
23:04 21.3 °C 15.2 °C 1014.8 hPa SW 8 km/h 17.7 km/h 68% 0 mm
23:09 21.3 °C 15.2 °C 1014.8 hPa SW 8 km/h 17.7 km/h 68% 0 mm
23:14 21.3 °C 15.2 °C 1014.4 hPa SW 1.6 km/h 11.3 km/h 68% 0 mm
23:19 21.3 °C 15.4 °C 1014.4 hPa SW 6.4 km/h 12.9 km/h 69% 0 mm
23:24 21.3 °C 15.4 °C 1014.4 hPa SW 6.4 km/h 14.5 km/h 69% 0 mm
23:29 21.2 °C 15.6 °C 1014.8 hPa SSW 4.8 km/h 8 km/h 70% 0 mm
23:34 21.1 °C 15.4 °C 1014.8 hPa West 3.2 km/h 14.5 km/h 70% 0 mm
23:39 21.1 °C 15.4 °C 1014.8 hPa WSW 6.4 km/h 11.3 km/h 70% 0 mm
23:44 21.1 °C 15.4 °C 1014.8 hPa SW 6.4 km/h 17.7 km/h 70% 0 mm
23:49 21.2 °C 15.5 °C 1014.8 hPa SW 6.4 km/h 17.7 km/h 70% 0 mm
23:54 21.2 °C 15.6 °C 1014.4 hPa SW 6.4 km/h 12.9 km/h 70% 0 mm
23:59 21.2 °C 15.6 °C 1014.8 hPa SW 3.2 km/h 11.3 km/h 70% 0 mm
Buffalo, New York, USA
Compliments of Weather Underground - 2.5 mb